Fort Campbell, KY

12:13 AM CST on February 10, 2016 (GMT -0600)
Campbell Army Air Field

Weather History for KHOP - April, 2013

Change the Weather History Date:

Monday, April 29, 2013

  Actual Average Record
Temperature  
Mean Temperature 61 °F -  
Max Temperature 72 °F 72 °F 83 °F (2012)
Min Temperature 50 °F 51 °F 33 °F (2008)
Degree Days  
Heating Degree Days 4    
Growing Degree Days 11 (Base 50)    
Moisture  
Dew Point 52 °F    
Average Humidity 85    
Maximum Humidity 100    
Minimum Humidity 48    
Precipitation  
Precipitation 0.00 in - - ()
Sea Level Pressure  
Sea Level Pressure 29.98 in    
Wind  
Wind Speed 2 mph (SSE)    
Max Wind Speed 7 mph    
Max Gust Speed -    
Visibility 8 miles    
Events      
Averages and records for this station are not official NWS values.
T = Trace of Precipitation, MM = Missing Value Source: NWS Daily Summary

Daily Weather History Graph

Daily Weather History Graph

Search for Another Location

Airport or City:

Trip Planner

Search our weather history database for the weather conditions in past years. The results will help you decide how hot, cold, wet, or windy it might be!

Date:

Astronomy

Apr. 29, 2013 Rise Set
Actual Time 5:58 AM CDT 7:36 PM CDT
Civil Twilight 5:30 AM CDT 8:04 PM CDT
Nautical Twilight 4:57 AM CDT 8:37 PM CDT
Astronomical Twilight 4:22 AM CDT 9:13 PM CDT
Moon 11:58 PM CDT (4/29) 9:21 AM CDT (4/29)
Length of Visible Light 14h 33m
Length of Day
13h 38m
Waning Gibbous, 80% of the Moon is Illuminated
Apr 29
Waning Gibbous
May 2
Last Quarter
May 9
New
May 17
First Quarter
May 24
Full

Hourly Weather History & Observations

Time (CDT) Temp. Dew Point Humidity Pressure Visibility Wind Dir Wind Speed Gust Speed Precip Events Conditions
12:58 AM 53.4 °F 53.4 °F 100% 29.98 in 10.0 mi West 2.3 mph - N/A   Overcast
1:58 AM 51.3 °F 51.3 °F 100% 29.97 in 10.0 mi SW 2.3 mph - N/A   Clear
2:58 AM 51.3 °F 51.3 °F 100% 29.97 in 10.0 mi SW 2.3 mph - N/A   Scattered Clouds
3:10 AM 51.8 °F 51.8 °F 100% 29.97 in 9.0 mi SSW 2.3 mph - N/A   Partly Cloudy
3:50 AM 50.0 °F 50.0 °F 100% 29.97 in 5.0 mi Calm Calm - N/A   Clear
3:53 AM 50.0 °F 50.0 °F 100% 29.97 in 2.5 mi SSW 1.2 mph - N/A   Clear
3:55 AM 50.0 °F 50.0 °F 100% 29.97 in 2.5 mi South 1.2 mph - N/A   Clear
3:58 AM 50.0 °F 50.0 °F 100% 29.98 in 2.5 mi South 1.2 mph - N/A   Clear
3:59 AM 50.0 °F 50.0 °F 100% 29.97 in 2.5 mi South 1.2 mph - N/A   Clear
4:01 AM 50.0 °F 50.0 °F 100% 29.97 in 3.0 mi SW 1.2 mph - N/A   Clear
4:06 AM 50.0 °F 50.0 °F 100% 29.97 in 5.0 mi WSW 2.3 mph - N/A   Clear
4:07 AM 50.0 °F 50.0 °F 100% 29.97 in 5.0 mi WSW 2.3 mph - N/A   Clear
4:19 AM 50.0 °F 50.0 °F 100% 29.97 in 5.0 mi Calm Calm - N/A   Clear
4:27 AM 50.0 °F 50.0 °F 100% 29.97 in 3.0 mi Calm Calm - N/A   Partly Cloudy
4:29 AM 50.0 °F 50.0 °F 100% 29.97 in 3.0 mi Calm Calm - N/A   Scattered Clouds
4:36 AM 50.0 °F 50.0 °F 100% 29.97 in 9.0 mi ENE 1.2 mph - N/A   Scattered Clouds
4:47 AM 50.0 °F 50.0 °F 100% 29.98 in 9.0 mi Calm Calm - N/A   Mostly Cloudy
4:57 AM 50.0 °F 50.0 °F 100% 29.98 in 10.0 mi Calm Calm - N/A   Overcast
4:58 AM 50.0 °F 50.0 °F 100% 29.99 in 10.0 mi Calm Calm - N/A   Overcast
5:58 AM 50.5 °F 50.5 °F 100% 30.01 in 10.0 mi West 2.3 mph - N/A   Overcast
6:58 AM 51.4 °F 51.4 °F 100% 30.01 in 10.0 mi Calm Calm - N/A   Overcast
7:58 AM 53.8 °F 53.8 °F 100% 30.03 in 10.0 mi South 1.2 mph - N/A   Overcast
8:58 AM 57.4 °F 57.4 °F 100% 30.04 in 10.0 mi SW 2.3 mph - N/A   Overcast
9:58 AM 61.7 °F 56.5 °F 83% 30.03 in 10.0 mi Variable 2.3 mph - N/A   Clear
10:15 AM 64.4 °F 50.0 °F 59% 30.03 in 10.0 mi Variable 2.3 mph - N/A   Mostly Cloudy
10:42 AM 64.4 °F 51.8 °F 64% 30.04 in 10.0 mi Variable 2.3 mph - N/A   Mostly Cloudy
10:58 AM 64.4 °F 52.3 °F 65% 30.04 in 10.0 mi East 4.6 mph - N/A   Mostly Cloudy
11:58 AM 65.8 °F 54.3 °F 66% 30.02 in 10.0 mi Variable 1.2 mph - N/A   Scattered Clouds
12:58 PM 67.1 °F 53.8 °F 62% 29.99 in 10.0 mi East 5.8 mph - N/A   Partly Cloudy
1:58 PM 68.5 °F 54.0 °F 60% 29.98 in 10.0 mi Variable 1.2 mph - N/A   Clear
2:58 PM 70.2 °F 54.3 °F 57% 29.96 in 10.0 mi Variable 3.5 mph - N/A   Clear
3:58 PM 71.2 °F 52.0 °F 51% 29.93 in 10.0 mi Variable 1.2 mph - N/A   Clear
4:58 PM 72.0 °F 51.4 °F 48% 29.93 in 10.0 mi East 4.6 mph - N/A   Clear
5:58 PM 71.6 °F 51.8 °F 50% 29.92 in 10.0 mi ENE 5.8 mph - N/A   Clear
6:58 PM 69.8 °F 53.8 °F 57% 29.92 in 10.0 mi NE 5.8 mph - N/A   Clear
7:58 PM 66.6 °F 54.5 °F 65% 29.92 in 10.0 mi East 6.9 mph - N/A   Clear
8:58 PM 63.9 °F 54.9 °F 72% 29.93 in 10.0 mi East 4.6 mph - N/A   Clear
9:58 PM 62.1 °F 55.9 °F 80% 29.94 in 10.0 mi East 5.8 mph - N/A   Clear
10:58 PM 60.6 °F 56.7 °F 87% 29.94 in 10.0 mi ESE 3.5 mph - N/A   Clear
11:58 PM 59.4 °F 57.2 °F 93% 29.94 in 10.0 mi ESE 4.6 mph - N/A   Clear